Location: Bathurst
(33.4193°S, 149.5775°E)
Time: 21:13:21
(UTC+11:00)

ISS - Pass Details

Date: 27 January 2021
Orbit: 417 x 422 km, 51.6° (Epoch: 28 February)

Event Time Altitude Azimuth Distance (km) Brightness Sun altitude
Exits shadow 05:27:00 - 257° (WSW) 1,624 -1.2 -10.5°
Reaches altitude 10° 05:27:24 10° 252° (WSW) 1,516 -1.3 -10.4°
Maximum altitude 05:29:37 16° 212° (SSW) 1,199 -1.5 -10.0°
Drops below altitude 10° 05:31:51 10° 171° (S) 1,523 -0.3 -9.6°
Sets 05:34:34 0° 148° (SSE) 2,393 1.3 -9.1°
